Location: Bailleul
(50.3375°N, 2.8513°E)
Time: 21:24:03
(UTC+00:00)

Meteor 1-4 Rocket - Pass Details

Date: 19 April 2021
Orbit: 448 x 498 km, 81.2° (Epoch: 18 May)

Event Time Altitude Azimuth Distance (km) Brightness Sun altitude
Exits shadow 22:15:58 31° 289° (WNW) 832 4.1 -25.0°
Maximum altitude 22:15:59 31° 289° (WNW) 832 4.1 -25.0°
Drops below altitude 10° 22:19:11 10° 354° (N) 1,623 6.1 -25.2°
Sets 22:21:27 0° 5° (N) 2,513 7.2 -25.4°
